Regional Weather Roundup
Issued by NWS

Home | Current Version | Previous Version | Text Only | Print | Product List | Glossary Off
Versions: 1 2 3 4 5 6 7 8 9 10 11 12 13 14 15 16 17 18 19 20 21 22 23 24 25 26 27 28 29 30 31 32 33 34 35 36 37 38 39 40 41 42 43 44 45 46 47 48 49 50

000
ASUS43 KMKX 170511
RWRWI

WISCONSIN REGIONAL WEATHER ROUNDUP
NATIONAL WEATHER SERVICE MILWAUKEE/SULLIVAN WI
1200 AM CDT WED SEP 17 2014

NOTE: "FAIR" INDICATES FEW OR NO CLOUDS BELOW 12,000 FEET WITH NO
SIGNIFICANT WEATHER AND/OR OBSTRUCTIONS TO VISIBILITY.

WIZ001-002-006>008-014>016-023>028-170600-
NORTHWEST WISCONSIN

CITY           SKY/WX    TMP DP  RH WIND       PRES   REMARKS
SUPERIOR ARPT  PTCLDY    48  45  87 SW7       29.98S
ASHLAND        CLOUDY    54  44  69 SW7       29.99F
HAYWARD        CLEAR     42  40  92 CALM      30.02F
SIREN          CLEAR     45  42  91 CALM      30.01F
RICE LAKE        N/A     43  42  97 CALM      30.04S
LADYSMITH      CLEAR     43  42  95 CALM      30.04F
EAU CLAIRE     CLEAR     45  43  93 CALM      30.02F
MENOMONIE      CLEAR     47  45  93 CALM      30.03F
NEW RICHMOND   CLEAR     47  44  91 SE5       30.02S
OSCEOLA        CLEAR     45  45 100 CALM      30.04S
$$

WIZ003>005-009-010-017-018-170600-
NORTH CENTRAL WISCONSIN

CITY           SKY/WX    TMP DP  RH WIND       PRES   REMARKS
WOODRUFF       CLEAR     45  42  91 CALM      30.02F
RHINELANDER    CLEAR     44  41  89 W6        30.04S
EAGLE RIVER    PTCLDY    40  40  99 CALM      30.01F
LAND O LAKES   PTCLDY    51  43  74 CALM      30.02S
PHILLIPS       CLEAR     42  41  96 CALM      30.03S
TOMAHAWK       CLEAR     39  38  95 CALM      30.04S FOG
MEDFORD        CLEAR     43  40  92 CALM      30.04S
MERRILL        MOCLDY    38  38  99 NE3       30.04F
$$

WIZ029-030-035-036-043>047-170600-
CENTRAL WISCONSIN

CITY           SKY/WX    TMP DP  RH WIND       PRES   REMARKS
WAUSAU         CLEAR     47  44  90 CALM      30.03F
MOSINEE        CLEAR     45  43  93 SW5       30.05F
MARSHFIELD     CLEAR     46  43  89 SW3       30.04F
STEVENS POINT  CLEAR     40  39  95 CALM      30.05F
WAUPACA        CLEAR     46  44  94 CALM      30.05F
WAUTOMA        CLEAR     41  40  96 CALM      30.06F
WISC RAPIDS    CLEAR     44  42  93 CALM      30.06F
CAMP DOUGLAS   FOG       36  36 100 CALM      30.05F VSB 1
$$

WIZ011>013-019>022-031-037>040-048>050-170600-
NORTHEAST WISCONSIN

CITY           SKY/WX    TMP DP  RH WIND       PRES   REMARKS
ANTIGO         CLEAR     42  40  94 CALM      30.04F
STURGEON BAY   CLEAR     52  45  76 W7        30.03F
GREEN BAY      CLEAR     46  45  96 CALM      30.04F
MANITOWOC      CLEAR     48  44  86 SW3       30.06S
APPLETON       CLEAR     48  43  81 SW7       30.05F
CLINTONVILLE   CLEAR     46  43  87 SW3       30.04F
OSHKOSH        CLEAR     52  43  71 SW3       30.05F
$$

WIZ032>034-041-042-053>061-170600-
SOUTHWEST WISCONSIN

CITY           SKY/WX    TMP DP  RH WIND       PRES   REMARKS
LA CROSSE      CLEAR     50  47  89 SE6       30.05S
SPARTA         CLEAR     40  39  99 CALM      30.06F
VIROQUA        FAIR      50  44  80 S6        30.05F
BOSCOBEL       FOG       45  43  93 CALM      30.08S VSB 1/4
PRAIRIE DU CHI CLEAR     46  45  94 SE3       30.06F
PLATTEVILLE    FAIR      49  44  81 CALM      30.08F
$$

WIZ056-057-062-063-064-067-068-170600-
SOUTH CENTRAL WISCONSIN

CITY           SKY/WX    TMP DP  RH WIND       PRES   REMARKS
BARABOO/DELLS  CLEAR     44  42  93 S3        30.06F
LONE ROCK      PTCLDY    45  41  86 E3        30.07F FOG
WATERTOWN      CLEAR     41  41 100 CALM      30.07F
MADISON        CLEAR     45  43  93 CALM      30.07F
MIDDLETON        N/A     42  42  99 CALM      30.08S VSB 1/2
MONROE         CLEAR     52  45  76 S6        30.08F
JANESVILLE     CLEAR     45  43  93 CALM      30.08S
$$

WIZ051-052-058>065-066-070>072-170600-
SOUTHEAST WISCONSIN

CITY           SKY/WX    TMP DP  RH WIND       PRES   REMARKS
MILWAUKEE      CLEAR     51  44  77 SW5       30.08F
WAUKESHA       CLEAR     45  43  93 CALM      30.09F
MILWAUKEE/TIMM CLEAR     46  43  87 CALM      30.08F
RACINE         CLEAR     49  44  83 SW6       30.10F
BURLINGTON       N/A     40  40 100 CALM      30.09S FOG
KENOSHA        CLEAR     45  43  93 SW3       30.09F
FOND DU LAC    CLEAR     47  42  83 SW3       30.07S
SHEBOYGAN      CLEAR     45  41  86 CALM      30.06F
WEST BEND      CLEAR     43  41  93 CALM      30.07F FOG
JUNEAU         CLEAR     44  42  91 CALM      30.08S
$$

LSZ147-162-170600-
LAKE SUPERIOR

STATION/POSITION TIME  TEMP    WIND        PRES    WAVE
                       AIR SEA DIR/SP/G            HT/PER
                 (UTC) (F)     (DEG/KT/KT) (MB)    (FT/S)
W MID LAKE BUOY  0450   48 47   70/ 12/ 16 1015.2F   2/ 4
DEVILS ISLAND    0500   57     260/ 15/ 17 1014.6F
PORT WING        0440   57     200/  7/ 11 1014.9F
SAXON HARBOR     0440   58     190/  4/ 10 1015.2F
$$

LMZ867-665-643>646-170600-
LAKE MICHIGAN

STATION/POSITION TIME  TEMP    WIND        PRES    WAVE
                       AIR SEA DIR/SP/G            HT/PER
                 (UTC) (F)     (DEG/KT/KT) (MB)    (FT/S)
N MID LAKE BUOY  0450   59 59  260/ 14/ 16 1015.8R   2/ 5
NORTHPORT PIER   0400   59     240/  5/ 12 1015.9S
KEWAUNEE LAKESHO 0400   53     290/  3/  5 1016.3F
SHEBOYGAN LAKESH 0500   52 49  250/  8/  9 1018.3F
PORT WASHINGTON  0440   49     250/  4/  4 1019.0S
ATWATER BUOY     0500   57     210/  8/ 10 1019.3F
MILWAUKEE LAKESH 0400   55     220/  7/  9   N/A
S MID LAKE BUOY  0450   60 64  210/  6/  8 1018.8F   1
KENOSHA   LAKESH 0500   56     220/  7/  9 1018.3F
$$

TC  - TEMPERATURE IN CELSIUS
VSB - VISIBILITY IN STATUTE MILES
WCI - WIND CHILL INDEX
HX  - HEAT INDEX



USA.gov is the U.S. government's official web portal to all federal, state and local government web resources and services.